Home   Weather   Iquique   Past weeks

Flag for Chile Past Weather in Iquique, Chile — Yesterday and Last 2 Weeks

Now
63 °F

Overcast.


Feels Like: 63 °F
Forecast: 60 / 68 °F
Wind: 3 mph from Northwest

Location: Iquique / Diego Arac

Current Time: Oct 1, 2016 at 4:00:18 AM

Latest Report: Oct 1, 2016 at 3:00 AM


Visibility: N/A

Pressure: 30.01 "Hg

Humidity: 68%

Dew Point: 52 °F

Location of IquiqueLocation

Past Weather in Iquique — Graph

°F

Iquique Temperature Yesterday

Maximum temperature yesterday: 66 °F (at 1:00 PM)
Minimum temperature yesterday: 61 °F (at 4:00 AM)
Average temperature yesterday: 63 °F

High & Low Weather Summary for the Past Weeks

 TemperatureHumidityPressure
High68 °F (Sep 21, 1:00 PM)82% (Sep 16, 9:00 PM)30.09 "Hg (Sep 16, 9:00 PM)
Low59 °F (Sep 16, 5:00 AM)52% (Sep 26, 1:00 PM)29.89 "Hg (Sep 16, 4:00 PM)
Average63 °F67%30.00 "Hg
* Reported Sep 16 3:00 AM — Oct 1 3:00 AM, Iquique, Weather by CustomWeather, © 2016

Note: Actual official high and low records may vary slightly from our data, if they occured in-between our weather recording intervals... More about our weather records

Advertising

Iquique Weather History for the Previous 24 Hours

Scroll right to see more
 ConditionsComfort  
Time TempWeatherWind HumidityBarometerVisibility
3:00 AM
Sat, Oct 1
63 °FOvercast.3 mph68%30.01 "HgN/A
2:00 AM63 °FOvercast.No wind68%30.04 "HgN/A
1:00 AM63 °FOvercast.3 mph68%30.04 "HgN/A
12:00 AM63 °FOvercast.5 mph73%30.04 "HgN/A
11:00 PM
Fri, Sep 30
63 °FOvercast.6 mph73%30.04 "HgN/A
10:00 PM63 °FOvercast.8 mph73%30.04 "HgN/A
9:00 PM63 °FOvercast.10 mph73%30.01 "HgN/A
8:00 PM63 °FPassing clouds.12 mph73%30.01 "HgN/A
7:00 PM63 °FPartly sunny.12 mph73%29.98 "HgN/A
6:00 PM64 °FPartly sunny.13 mph68%29.98 "HgN/A
5:00 PM66 °FPartly sunny.14 mph64%29.95 "HgN/A
4:00 PM66 °FScattered clouds.15 mph60%29.98 "HgN/A
3:00 PM66 °FScattered clouds.13 mph60%29.98 "HgN/A
2:00 PM66 °FScattered clouds.12 mph56%30.01 "HgN/A
1:00 PM66 °FPartly sunny.10 mph56%30.04 "HgN/A
12:00 PM64 °FPartly sunny.9 mph60%30.04 "HgN/A
11:00 AM64 °FPartly sunny.7 mph60%30.07 "HgN/A
10:00 AM63 °FOvercast.3 mph64%30.07 "HgN/A
9:00 AM63 °FOvercast.No wind64%30.07 "HgN/A
8:00 AM63 °FOvercast.5 mph64%30.07 "HgN/A
7:00 AM63 °FOvercast.3 mph64%30.04 "HgN/A
6:00 AM63 °FOvercast.5 mph64%30.04 "HgN/A
5:00 AM61 °FOvercast.5 mph72%30.04 "HgN/A
4:00 AM61 °FOvercast.8 mph72%30.07 "HgN/A
Weather by CustomWeather, © 2016

See weather overviewHow to use our weather pages